Location: Peterborough
(44.3091°N, 78.3197°W)
Time: 08:41:16
(UTC-04:00)

BlueWalker 3 - Visible Passes

Search period start: 16 June 2025 00:00
Search period end: 26 June 2025 00:00
Orbit: 460 x 472 km, 53.2° (Epoch: 15 June)

Date Brightness Start Highest point End Pass type
(mag) Time Alt. Az. Time Alt. Az. Time Alt. Az.
20 Jun 3.0 04:34:05 10° SSW 04:37:23 33° SE 04:40:42 10° ENE visible
21 Jun 3.2 04:02:49 15° S 04:05:05 27° SE 04:08:13 10° ENE visible
22 Jun 3.4 03:31:36 19° SSE 03:32:47 22° SE 03:35:40 10° E visible
23 Jun 3.6 03:00:18 18° SE 03:00:27 18° SE 03:03:03 10° E visible
23 Jun 2.0 04:34:13 10° WSW 04:37:49 68° NNW 04:41:28 10° NE visible
24 Jun 4.1 02:28:57 14° ESE 02:28:57 14° ESE 02:30:19 10° E visible
24 Jun 1.8 04:02:52 19° WSW 04:05:25 81° NW 04:09:04 10° NE visible
25 Jun 1.7 03:31:27 32° SW 03:33:00 85° SE 03:36:40 10° ENE visible
